Home > Weather > Aqtobe > Past weeks

Flag for Kazakhstan Past Weather in Aqtobe, Kazakhstan — Yesterday and Last 2 Weeks

Now
79 °F

Passing clouds.


Feels Like: 79 °F
Forecast: 60 / 76 °F
Wind: 13 mph from Northwest

Location: Aktjubinsk

Current Time: Jun 27, 2016 at 4:22:29 PM

Latest Report: Jun 27, 2016 at 3:00 PM


Visibility: N/A

Pressure: 29.77 "Hg

Humidity: 30%

Dew Point: 45 °F

Location of AqtobeLocation

Past Weather in Aqtobe — Graph

°F

Aqtobe Temperature Yesterday

Maximum temperature yesterday: 75 °F (at 2:30 PM)
Minimum temperature yesterday: 55 °F (at 4:30 AM)
Average temperature yesterday: 66 °F

High & Low Weather Summary for the Past Weeks

 TemperatureHumidityPressure
High90 °F (Jun 23, 2:30 PM)100% (Jun 13, 3:00 AM)30.21 "Hg (Jun 13, 3:00 AM)
Low52 °F (Jun 13, 4:00 AM)13% (Jun 18, 4:30 PM)29.77 "Hg (Jun 27, 1:30 PM)
Average72 °F60%30.00 "Hg
* Reported Jun 12 3:00 PM — Jun 27 3:00 PM, Aqtobe, Weather by CustomWeather, © 2016

Note: Actual official high and low records may vary slightly from our data, if they occured in-between our weather recording intervals... More about our weather records

Advertising

Aqtobe Weather History for the Previous 24 Hours

Scroll right to see more
 ConditionsComfort  
Time TempWeatherWind HumidityBarometerVisibility
3:00 PM
Mon, Jun 27
79 °FPassing clouds.13 mph30%29.77 "HgN/A
2:30 PM79 °FScattered clouds.15 mph28%29.77 "HgN/A
2:00 PM79 °FScattered clouds.10 mph34%29.77 "HgN/A
1:30 PM77 °FScattered clouds.10 mph34%29.77 "HgN/A
1:00 PM77 °FScattered clouds.13 mph32%29.80 "HgN/A
12:30 PM77 °FPassing clouds.10 mph32%29.80 "HgN/A
12:00 PM75 °FPassing clouds.8 mph34%29.83 "HgN/A
11:30 AM75 °FPassing clouds.10 mph36%29.83 "HgN/A
11:00 AM75 °FPassing clouds.8 mph36%29.83 "HgN/A
10:30 AM73 °FClear.8 mph41%29.83 "HgN/A
10:00 AM73 °FClear.10 mph44%29.83 "HgN/A
9:30 AM72 °FClear.6 mph47%29.83 "HgN/A
9:00 AM70 °FClear.3 mph60%29.83 "Hg3 mi
8:30 AM68 °FClear.1 mph69%29.83 "Hg2 mi
8:00 AM64 °FClear.1 mph73%29.83 "Hg3 mi
7:30 AM61 °FClear.No wind83%29.86 "Hg3 mi
7:00 AM61 °FClear.No wind94%29.86 "Hg3 mi
6:30 AM55 °FClear.No wind100%29.86 "Hg3 mi
6:00 AM54 °FClear.No wind100%29.86 "Hg4 mi
5:30 AM54 °FSunny.1 mph100%29.86 "Hg10 mi
5:00 AM54 °FClear.1 mph100%29.86 "Hg10 mi
4:30 AM52 °FClear.No wind100%29.86 "Hg10 mi
4:00 AM52 °FClear.3 mph100%29.86 "Hg10 mi
3:30 AM52 °FClear.3 mph100%29.86 "Hg10 mi
3:00 AM52 °FClear.6 mph100%29.86 "Hg10 mi
2:30 AM54 °FClear.3 mph100%29.86 "Hg10 mi
2:00 AM54 °FClear.No wind100%29.86 "Hg10 mi
1:30 AM55 °FPassing clouds.3 mph100%29.86 "HgN/A
1:00 AM55 °FClear.6 mph100%29.86 "Hg10 mi
12:30 AM55 °FClear.3 mph100%29.86 "Hg10 mi
12:00 AM57 °FClear.3 mph100%29.86 "Hg10 mi
11:30 PM
Sun, Jun 26
59 °FClear.6 mph100%29.86 "Hg10 mi
11:00 PM61 °FClear.6 mph94%29.86 "Hg10 mi
10:30 PM63 °FClear.No wind83%29.86 "Hg10 mi
10:00 PM66 °FClear.No wind64%29.86 "Hg10 mi
9:30 PM70 °FPassing clouds.1 mph57%29.86 "HgN/A
9:00 PM70 °FPassing clouds.3 mph60%29.86 "HgN/A
8:30 PM72 °FPassing clouds.6 mph50%29.86 "HgN/A
8:00 PM73 °FPassing clouds.8 mph44%29.86 "HgN/A
7:30 PM73 °FPassing clouds.8 mph44%29.86 "HgN/A
7:00 PM73 °FScattered clouds.10 mph44%29.86 "HgN/A
6:30 PM73 °FPartly sunny.13 mph44%29.86 "HgN/A
6:00 PM75 °FBroken clouds.15 mph44%29.86 "HgN/A
5:30 PM73 °FBroken clouds.17 mph41%29.86 "HgN/A
5:00 PM73 °FBroken clouds.8 mph44%29.86 "HgN/A
4:30 PM75 °FBroken clouds.10 mph44%29.86 "HgN/A
4:00 PM73 °FBroken clouds.8 mph44%29.86 "HgN/A
Weather by CustomWeather, © 2016

See weather overviewHow to use our weather pages